Volver al catálogo

ELISA E12

ActivoMilitarSSO
NORAD 38010·PAYLOAD·🇫🇷 France

Lanzado Dec 17, 2011 desde Guiana Space Centre

Loading…

Próximos Pases (próximas 24 horas)

TLE

ActualizadoSource: Space-Track

Época: Sep 14, 2026, 14:39 UTC

1 38010U 11076D   26257.61102285  .00001012  00000-0  10273-3 0  9994
2 38010  97.6362 281.0110 0000754 101.3814 258.7491 14.92977185792562

Sigue ELISA E12 en tiempo real con AllMySat

Download on the App Store